Weather Roundup
Issued by NWS Chicago, IL

Home | Current Version | Previous Version | Graphics & Text | Print | Product List | Glossary On
Versions: 1 2 3 4 5 6 7 8 9 10 11 12 13 14 15 16 17 18 19 20 21 22 23 24 25 26 27 28 29 30 31 32 33 34 35 36 37 38 39 40 41 42 43 44 45 46 47 48 49 50
000
NZUS59 KLOT 070902
HRRLOT

CHICAGO AREA WEATHER ROUNDUP
NATIONAL WEATHER SERVICE CHICAGO/ROMEOVILLE IL
400 AM CDT TUE JUL 07 2015

NOTE: "FAIR" INDICATES FEW OR NO CLOUDS BELOW 12,000 FEET WITH NO
SIGNIFICANT WEATHER AND/OR OBSTRUCTIONS TO VISIBILITY.

* THESE STATIONS ARE NOT UNDER NWS QUALITY CONTROL. THEY ALSO MAY NOT
  REPORT WEATHER SUCH AS PRECIPITATION OR FOG.

ILZ005-006-012>014-019>023-071000-
NORTHEAST ILLINOIS

CITY           SKY/WX    TMP DP  RH WIND       PRES   REMARKS
OHARE          CLOUDY    71  69  93 W6        29.84S
MIDWAY         LGT RAIN  73  69  87 SW6       29.84S
AURORA         CLOUDY    67  63  87 N14       29.86R
WAUKEGAN       CLOUDY    59  57  93 N13G28    29.87R
DUPAGE AIRPORT CLOUDY    67  64  90 NW14      29.85R
WHEELING       CLOUDY    69  65  86 N10       29.86R
NORTHERLY IS     N/A     72  68  87 S3          N/A
$$

WIZ051-052-058>065-066-070>072-071000-
SOUTHEAST WISCONSIN

CITY           SKY/WX    TMP DP  RH WIND       PRES   REMARKS
MILWAUKEE      LGT RAIN  59  57  93 N10       29.90R FOG
KENOSHA*       LGT RAIN  59  57  93 N13G26    29.88F FOG
RACINE*        RAIN      59  56  89 N18G28    29.91R FOG
$$

INZ001>003-010>013-019-020-071000-
NORTHWEST INDIANA

CITY           SKY/WX    TMP DP  RH WIND       PRES   REMARKS
GARY*          NOT AVBL
MICHIGAN CITY* NOT AVBL
RENSSELAER*    NOT AVBL
$$

LMZ740>746-071000-
SOUTHERN LAKE MICHIGAN

STATION/POSITION TIME  SKY/WX   TEMP WIND        PRES    VSBY
                                AIR  DIR/SP/G
                 (UTC)          (F)  (DEG/KT/KT) (MB)    (MI)
HARRISON CRIB    0800            71  190/  8/  9   N/A
BURNHAM HARBOR   0800            72  200/  3/  8   N/A
CALUMET HARBOR   0800            72  200/  4/  6   N/A
BURNS HARBOR     0800            73  230/  7/  9 1011.5F
MICHIGAN CITY    0800            70  220/  6/  7   N/A
$$

ABBREVIATIONS USED IN REMARKS
   TC - TEMPERATURE IN CELSIUS
  WCI - WIND CHILL INDEX
   HX - HEAT INDEX
  VSB - VISIBILITY
$$


USA.gov is the U.S. government's official web portal to all federal, state and local government web resources and services.